Regional Weather Roundup
Issued by NWS Little Rock, AR

Home | Current Version | Previous Version | Graphics & Text | Print | Product List | Glossary On
Versions: 1 2 3 4 5 6 7 8 9 10 11 12 13 14 15 16 17 18 19 20 21 22 23 24 25 26 27 28
000
ASUS44 KLZK 282205
RWRLZK

WEATHER ROUNDUP FOR ARKANSAS
NATIONAL WEATHER SERVICE LITTLE ROCK AR
500 PM CDT THU JUL 28 2016

NOTE: "FAIR" INDICATES FEW OR NO CLOUDS BELOW 12,000 FEET WITH NO
SIGNIFICANT WEATHER AND/OR OBSTRUCTIONS TO VISIBILITY.

ARZ001-003-010-029-282300-
NORTHWEST ARKANSAS

CITY           SKY/WX    TMP DP  RH WIND       PRES   REMARKS
FAYETTEVILLE   SUNNY     90  70  51 VRB5      29.93F HX  95
FORT SMITH     PTSUNNY   97  68  38 SE6       29.87F HX 102
HARRISON       SUNNY     92  67  43 W7        29.93F HX  95
BENTONVILLE    CLOUDY    84  70  61 N9        29.96S HX  88
ROGERS         CLOUDY    85  74  69 NW6       29.96S HX  92
SILOAM SPGS    CLOUDY    90  66  45 N3        29.96S HX  92
HIGHFILL       MOSUNNY   89  76  65 N12       29.94F HX 100
SPRINGDALE     PTSUNNY   91  72  52 NW7       29.95F HX  98
$$

ARZ004-005-016-282300-
NORTH CENTRAL ARKANSAS

CITY           SKY/WX    TMP DP  RH WIND       PRES   REMARKS
BATESVILLE     CLOUDY    84  70  61 S5        29.90R HX  88
FLIPPIN        SUNNY     91  70  49 W3        29.87F HX  97
MTN HOME       MOSUNNY   90  73  57 W6        29.89F HX  98
$$

ARZ040-041-282300-
WEST CENTRAL ARKANSAS

CITY           SKY/WX    TMP DP  RH WIND       PRES   REMARKS
MENA             N/A    N/A N/A N/A MISG        N/A
MOUNT IDA      CLOUDY    89  75  63 VRB6      29.91F HX  99
$$

ARZ009-017-025-026-028-282300-
NORTHEAST ARKANSAS

CITY           SKY/WX    TMP DP  RH WIND       PRES   REMARKS
CORNING          N/A     82  81  94 SW18      29.88R THUNDER HX  95
JONESBORO      PTSUNNY   89  76  65 SW14      29.87F HX 100
NEWPORT        CLOUDY    87  72  61 SW10      29.90S HX  93
WALNUT RIDGE   PTSUNNY   82  73  74 SW8       29.85S HX  88
BLYTHEVILLE    SUNNY     88  77  69 SW8       29.89F HX 100
$$

ARZ022-023-033-042-044-282300-
CENTRAL ARKANSAS

CITY           SKY/WX    TMP DP  RH WIND       PRES   REMARKS
LITTLE ROCK    PTSUNNY   90  75  61 SW13      29.89F HX 100
N LITTLE ROCK    N/A     86  76  72 SW6       29.87F HX  97
SEARCY         CLOUDY    81  70  69 NE18G25   29.95R
HOT SPRINGS    CLOUDY    85  75  72 S10       29.94S HX  93
RUSSELLVILLE   CLOUDY    92  72  51 W5        29.88F HX  99
$$

ARZ036-282300-
EAST ARKANSAS

CITY           SKY/WX    TMP DP  RH WIND       PRES   REMARKS
WEST MEMPHIS   MOSUNNY   85  76  74 SW9       29.89F HX  94
$$

ARZ050-053-066-070-073-282300-
SOUTHWEST ARKANSAS

CITY           SKY/WX    TMP DP  RH WIND       PRES   REMARKS
ARKADELPHIA    MOCLDY    82  76  81 S8        29.95S HX  89
CAMDEN         CLOUDY    77  72  83 SW7       29.97S
TEXARKANA      CLOUDY    75  72  90 S7        29.97F
EL DORADO      CLOUDY    75  74  96 SW5       29.99R
DE QUEEN       MOSUNNY   86  77  74 S9        29.91F HX  97
$$

ARZ056-057-069-282300-
SOUTHEAST ARKANSAS

CITY           SKY/WX    TMP DP  RH WIND       PRES   REMARKS
PINE BLUFF     CLOUDY    83  74  74 SW13      29.93F HX  89
STUTTGART      PTSUNNY   88  75  66 S15       29.92S HX  97
MONTICELLO     PTSUNNY   79  74  84 SW7       29.95S

$$






USA.gov is the U.S. government's official web portal to all federal, state and local government web resources and services.